Location: Clarion
(42.7316°N, 93.7330°W)
Time: 09:42:58
(UTC+00:00)

ISS - Pass Details

Date: 22 April 2026
Orbit: 414 x 424 km, 51.6° (Epoch: 17 May)

Event Time Altitude Azimuth Distance (km) Brightness Sun altitude
Exits shadow 09:41:23 53° 230° (SW) 521 -3.7 -17.3°
Maximum altitude 09:42:06 86° 146° (SE) 424 -3.9 -17.2°
Drops below altitude 10° 09:45:29 10° 57° (ENE) 1,504 0.4 -16.7°
Sets 09:47:35 0° 57° (ENE) 2,374 1.9 -16.4°
